Regional Weather Roundup
Issued by NWS Glasgow, MT

Home | Current Version | Previous Version | Text Only | Print | Product List | Glossary On
Versions: 1 2 3 4 5 6 7 8 9 10 11 12 13 14 15 16 17 18 19 20 21 22 23 24 25 26 27
000
ASUS45 KGGW 191815
RWRGGW
HOURLY WEATHER ROUNDUP FOR NORTHEAST MONTANA
NATIONAL WEATHER SERVICE GLASGOW MONTANA
1200 PM MDT SAT APR 19 2014

NOTE: "FAIR" INDICATES FEW OR NO CLOUDS BELOW 12,000 FEET WITH NO
SIGNIFICANT WEATHER AND/OR OBSTRUCTIONS TO VISISBILITY.

NORTHEAST MONTANA


CITY           SKY/WX    TMP DP  RH WIND       PRES   REMARKS
GLASGOW        PTSUNNY   49  36  61 W12       29.94S
6HR MIN TEMP:  36; 6HR MAX TEMP:  49;

PLENTYWOOD       N/A     44  35  70 NW15        N/A
WOLF POINT     MOSUNNY   52  35  52 W15G23    29.95R
JORDAN           N/A     56  27  32 W17G23    29.95S
WINNETT          N/A     58  21  24 SW3         N/A
SIDNEY         MOSUNNY   54  36  50 W13G22    29.95S
GLENDIVE       MOSUNNY   54  34  47 W16G26    29.97F
SCOBEY           N/A     45  32  60 W12G21    29.90R

FORT PECK REPORTS


CITY           SKY/WX    TMP DP  RH WIND       PRES   REMARKS
FORT PECK        N/A     48  35  60 W14         N/A
THE PINES        N/A     53  32  44 NW12        N/A

SOUTHEAST MONTANA


CITY           SKY/WX    TMP DP  RH WIND       PRES   REMARKS
BILLINGS       MOSUNNY   55  18  23 S7        29.98S
MILES CITY     SUNNY     57  28  33 W15G21    29.98F
BAKER          SUNNY     54  30  40 NW16G24   29.99R
LIVINGSTON     SUNNY     59  19  21 W20       29.95F

CENTRAL MONTANA


CITY           SKY/WX    TMP DP  RH WIND       PRES   REMARKS
HAVRE          SUNNY     54  26  34 SW8       29.91F
LEWISTOWN      SUNNY     52   6  15 W9        29.94S
GREAT FALLS    SUNNY     55  14  19 SW13G21   29.90F
CUT BANK       SUNNY     53  10  18 SW13      29.88S
HELENA         SUNNY     54  15  21 CALM      29.94F
BUTTE          SUNNY     52   8  17 W12G18    29.97F
BOZEMAN        SUNNY     55  13  18 CALM      29.98F

WESTERN MONTANA


CITY           SKY/WX    TMP DP  RH WIND       PRES   REMARKS
MISSOULA       SUNNY     48  24  39 CALM      29.97F
KALISPELL      NOT AVBL

NORTH DAKOTA


CITY           SKY/WX    TMP DP  RH WIND       PRES   REMARKS
WILLISTON      PTSUNNY   51  35  54 NW17G25   29.91R
DICKINSON      SUNNY     56  32  40 W24G37    29.91F
MINOT          CLOUDY    48  37  65 W20       29.85R
BISMARCK       SUNNY     62  29  28 W17G29    29.92S

SOUTHERN SASKATCHEWAN


CITY           SKY/WX    TMP DP  RH WIND       PRES   REMARKS
REGINA         CLOUDY    36  30  80 NW22      29.86R
ESTEVAN        CLOUDY    41  36  81 W17G24    29.85S
SWIFT CURRENT  CLOUDY    34  32  93 W15G22    29.88S




USA.gov is the U.S. government's official web portal to all federal, state and local government web resources and services.